Location: ????????
(55.3939°N, 37.4780°E)
Time: 06:58:34
(UTC+00:00)

Cosmos 1400 Rocket - Pass Details

Date: 14 April 2026
Orbit: 474 x 505 km, 81.1° (Epoch: 13 May)

Event Time Altitude Azimuth Distance (km) Brightness Sun altitude
Exits shadow 18:18:52 23° 154° (SSE) 1,053 3.7 -13.8°
Maximum altitude 18:20:40 41° 97° (E) 699 2.9 -14.0°
Drops below altitude 10° 18:24:06 10° 26° (NNE) 1,659 5.5 -14.3°
Sets 18:26:16 0° 19° (NNE) 2,546 6.5 -14.6°
